When you browse on this site, cookies collect data to enhance your experience and personalize the content and advertising you see.
Visit our Privacy Policy to learn more. By continuing to use the site, you agree to this use of cookies and data.
  • In United Kingdom
  • List of Countries
  • For 7 days
  • Water Temperature
  • Weather Map
  • Weather Widgets
  • user-avatar
    Login

    Hourly Weather Cered

    Today, 5 April, Sunday

    Time Temperature Precipitation Wind Pressure Humidity
    00:00 +3°C° 0 mm 3 mps 735 mmHg 64%
    01:00 +4°C° 0 mm 2 mps 735 mmHg 65%
    02:00 +3°C° 0 mm 3 mps 735 mmHg 65%
    03:00 +2°C° 0 mm 3 mps 735 mmHg 66%
    04:00 +2°C° 0 mm 3 mps 735 mmHg 67%
    05:00 +3°C° 0 mm 3 mps 735 mmHg 64%
    06:00 +4°C° 0 mm 3 mps 736 mmHg 61%
    07:00 +5°C° 0 mm 4 mps 736 mmHg 56%
    08:00 +6°C° 0 mm 4 mps 737 mmHg 52%
    09:00 +8°C° 0 mm 4 mps 737 mmHg 48%
    10:00 +11°C° 0 mm 4 mps 737 mmHg 44%
    11:00 +12°C° 0 mm 4 mps 737 mmHg 43%
    12:00 +13°C° 0 mm 4 mps 737 mmHg 41%
    13:00 +14°C° 0 mm 3 mps 737 mmHg 40%
    14:00 +14°C° 0 mm 3 mps 736 mmHg 40%
    15:00 +14°C° 0 mm 4 mps 736 mmHg 41%
    16:00 +14°C° 0 mm 4 mps 736 mmHg 41%
    17:00 +12°C° 0 mm 3 mps 736 mmHg 47%
    18:00 +10°C° 0 mm 3 mps 736 mmHg 53%
    19:00 +8°C° 0 mm 2 mps 736 mmHg 60%
    20:00 +7°C° 0 mm 2 mps 736 mmHg 62%
    21:00 +7°C° 0 mm 2 mps 737 mmHg 65%
    22:00 +6°C° 0 mm 2 mps 737 mmHg 67%
    23:00 +5°C° 0 mm 2 mps 737 mmHg 68%

    Tomorrow, 6 April, Monday

    Time Temperature Precipitation Wind Pressure Humidity
    00:00 +5°C° 0 mm 2 mps 737 mmHg 68%
    01:00 +5°C° 0 mm 2 mps 737 mmHg 69%
    02:00 +4°C° 0 mm 2 mps 737 mmHg 70%
    03:00 +4°C° 0 mm 2 mps 738 mmHg 71%
    04:00 +3°C° 0 mm 2 mps 738 mmHg 72%
    05:00 +4°C° 0 mm 2 mps 738 mmHg 68%
    06:00 +6°C° 0 mm 1 mps 739 mmHg 65%
    07:00 +7°C° 0 mm 1 mps 739 mmHg 61%
    08:00 +9°C° 0 mm 1 mps 739 mmHg 54%
    09:00 +9°C° 0 mm 2 mps 740 mmHg 47%
    10:00 +12°C° 0 mm 2 mps 741 mmHg 39%
    11:00 +13°C° 0 mm 2 mps 740 mmHg 38%
    12:00 +14°C° 0 mm 2 mps 740 mmHg 36%
    13:00 +15°C° 0 mm 2 mps 740 mmHg 35%
    14:00 +15°C° 0 mm 2 mps 740 mmHg 35%
    15:00 +15°C° 0 mm 2 mps 740 mmHg 35%
    16:00 +14°C° 0 mm 2 mps 739 mmHg 35%
    17:00 +12°C° 0 mm 1 mps 739 mmHg 41%
    18:00 +10°C° 0 mm 1 mps 739 mmHg 48%
    19:00 +9°C° 0 mm 1 mps 739 mmHg 54%
    20:00 +8°C° 0 mm 1 mps 739 mmHg 56%
    21:00 +7°C° 0 mm 1 mps 739 mmHg 57%
    22:00 +7°C° 0 mm 1 mps 740 mmHg 59%
    23:00 +5°C° 0 mm 0 mps 740 mmHg 61%

    Day after tomorrow, 7 April, Tuesday

    Time Temperature Precipitation Wind Pressure Humidity
    00:00 +5°C° 0 mm 0 mps 739 mmHg 62%
    01:00 +4°C° 0 mm 0 mps 739 mmHg 64%
    02:00 +4°C° 0 mm 0 mps 740 mmHg 65%
    03:00 +4°C° 0 mm 0 mps 740 mmHg 66%
    04:00 +3°C° 0 mm 0 mps 740 mmHg 67%
    05:00 +4°C° 0 mm 0 mps 740 mmHg 64%
    06:00 +6°C° 0 mm 0 mps 740 mmHg 61%
    07:00 +7°C° 0 mm 0 mps 740 mmHg 59%
    08:00 +10°C° 0 mm 1 mps 741 mmHg 52%
    09:00 +12°C° 0 mm 1 mps 741 mmHg 45%
    10:00 +14°C° 0 mm 2 mps 741 mmHg 38%
    11:00 +15°C° 0 mm 2 mps 741 mmHg 35%
    12:00 +16°C° 0 mm 2 mps 741 mmHg 31%
    13:00 +17°C° 0 mm 2 mps 741 mmHg 28%
    14:00 +17°C° 0 mm 2 mps 740 mmHg 29%
    15:00 +16°C° 0 mm 2 mps 740 mmHg 30%
    16:00 +16°C° 0 mm 2 mps 740 mmHg 31%
    17:00 +14°C° 0 mm 2 mps 739 mmHg 37%
    18:00 +12°C° 0 mm 2 mps 739 mmHg 44%
    19:00 +10°C° 0 mm 1 mps 739 mmHg 50%
    20:00 +9°C° 0 mm 1 mps 739 mmHg 51%
    21:00 +8°C° 0 mm 1 mps 739 mmHg 52%
    22:00 +8°C° 0 mm 1 mps 739 mmHg 54%
    23:00 +7°C° 0 mm 1 mps 739 mmHg 55%

    8 April, Wednesday

    Time Temperature Precipitation Wind Pressure Humidity
    00:00 +7°C° 0 mm 1 mps 739 mmHg 56%
    01:00 +5°C° 0 mm 0 mps 739 mmHg 57%
    02:00 +5°C° 0 mm 0 mps 739 mmHg 58%
    03:00 +5°C° 0 mm 0 mps 738 mmHg 59%
    04:00 +4°C° 0 mm 0 mps 738 mmHg 60%
    05:00 +6°C° 0 mm 0 mps 738 mmHg 58%
    06:00 +7°C° 0 mm 0 mps 738 mmHg 56%
    07:00 +8°C° 0 mm 0 mps 739 mmHg 54%
    08:00 +10°C° 0 mm 0 mps 739 mmHg 48%
    09:00 +13°C° 0 mm 0 mps 739 mmHg 41%
    10:00 +16°C° 0 mm 0 mps 739 mmHg 35%
    11:00 +16°C° 0 mm 0 mps 738 mmHg 32%
    12:00 +17°C° 0 mm 0 mps 738 mmHg 30%
    13:00 +20°C° 0 mm 1 mps 737 mmHg 28%
    14:00 +20°C° 0 mm 1 mps 737 mmHg 28%
    15:00 +19°C° 0 mm 1 mps 736 mmHg 29%
    16:00 +19°C° 0 mm 1 mps 736 mmHg 29%
    17:00 +16°C° 0 mm 1 mps 735 mmHg 36%
    18:00 +14°C° 0 mm 1 mps 735 mmHg 42%
    19:00 +10°C° 0 mm 0 mps 735 mmHg 48%
    20:00 +10°C° 0 mm 0 mps 735 mmHg 50%
    21:00 +10°C° 0 mm 1 mps 735 mmHg 51%
    22:00 +10°C° 0 mm 1 mps 735 mmHg 53%
    23:00 +8°C° 0 mm 0 mps 734 mmHg 54%

    9 April, Thursday

    Time Temperature Precipitation Wind Pressure Humidity
    00:00 +8°C° 0 mm 0 mps 734 mmHg 55%
    01:00 +7°C° 0 mm 0 mps 734 mmHg 56%
    02:00 +7°C° 0 mm 0 mps 734 mmHg 58%
    03:00 +6°C° 0 mm 0 mps 734 mmHg 59%
    04:00 +6°C° 0 mm 0 mps 734 mmHg 60%
    05:00 +7°C° 0 mm 0 mps 734 mmHg 58%
    06:00 +8°C° 0 mm 0 mps 734 mmHg 56%
    07:00 +10°C° 0 mm 0 mps 734 mmHg 54%
    08:00 +12°C° 0 mm 0 mps 734 mmHg 48%
    09:00 +15°C° 0 mm 1 mps 734 mmHg 42%
    10:00 +18°C° 0 mm 1 mps 734 mmHg 36%
    11:00 +18°C° 0 mm 2 mps 734 mmHg 34%
    12:00 +18°C° 0 mm 2 mps 733 mmHg 32%
    13:00 +19°C° 0 mm 2 mps 733 mmHg 31%
    14:00 +19°C° 0 mm 3 mps 733 mmHg 32%
    15:00 +18°C° 0 mm 3 mps 732 mmHg 34%
    16:00 +18°C° 0 mm 3 mps 732 mmHg 35%
    17:00 +16°C° 0 mm 3 mps 731 mmHg 42%
    18:00 +14°C° 0 mm 2 mps 731 mmHg 49%
    19:00 +12°C° 0 mm 2 mps 731 mmHg 57%
    20:00 +10°C° 0 mm 2 mps 731 mmHg 59%
    21:00 +11°C° 0 mm 1 mps 731 mmHg 61%
    22:00 +10°C° 0 mm 1 mps 731 mmHg 63%
    23:00 +9°C° 0 mm 1 mps 731 mmHg 65%

    10 April, Friday

    Time Temperature Precipitation Wind Pressure Humidity
    00:00 +9°C° 0 mm 1 mps 731 mmHg 67%
    01:00 +8°C° 0 mm 1 mps 731 mmHg 69%
    02:00 +8°C° 0 mm 1 mps 731 mmHg 71%
    03:00 +8°C° 0 mm 1 mps 731 mmHg 73%
    04:00 +7°C° 0 mm 1 mps 731 mmHg 74%
    05:00 +8°C° 0 mm 1 mps 731 mmHg 70%
    06:00 +10°C° 0 mm 1 mps 731 mmHg 66%
    07:00 +11°C° 0 mm 1 mps 732 mmHg 62%
    08:00 +14°C° 0 mm 1 mps 732 mmHg 55%
    09:00 +16°C° 0 mm 1 mps 732 mmHg 48%
    10:00 +19°C° 0 mm 1 mps 733 mmHg 40%
    11:00 +20°C° 0 mm 1 mps 733 mmHg 38%
    12:00 +21°C° 0 mm 1 mps 733 mmHg 37%
    13:00 +21°C° 0 mm 1 mps 733 mmHg 35%
    14:00 +19°C° 0 mm 2 mps 732 mmHg 38%
    15:00 +19°C° 0 mm 2 mps 732 mmHg 40%
    16:00 +18°C° 0 mm 2 mps 732 mmHg 43%
    17:00 +17°C° 0 mm 2 mps 732 mmHg 49%
    18:00 +15°C° 0 mm 2 mps 732 mmHg 55%
    19:00 +13°C° 0 mm 2 mps 732 mmHg 61%
    20:00 +12°C° 0 mm 2 mps 732 mmHg 64%
    21:00 +10°C° 0 mm 2 mps 732 mmHg 66%
    22:00 +9°C° 0 mm 2 mps 732 mmHg 69%
    23:00 +10°C° 0 mm 1 mps 732 mmHg 68%
    Show more